Location: Asheville, NC
(35.6000°N, 82.5500°W)
Time: 18:35:47
(UTC-04:00)

Vanguard 2 Rocket - Pass Details

Date: 18 February 2018
Orbit: 554 x 3327 km, 32.9° (Epoch: 21 May)

Event Time Altitude Azimuth Distance (km) Brightness Sun altitude
Rises 08:44:34 0° 275° (W) 7,174 10.9 16.5°
Drops below altitude 10° 08:57:37 10° 239° (WSW) 5,476 10.6 18.8°
Maximum altitude 08:58:38 10° 236° (SW) 5,393 10.6 19.0°
Sets 09:09:45 0° 193° (SSW) 5,371 11.1 20.9°
